Regional Weather Roundup
Issued by NWS

Home | Current Version | Previous Version | Graphics & Text | Print | Product List | Glossary On
Versions: 1 2 3 4 5 6 7 8 9 10 11 12 13 14 15 16 17 18 19 20 21 22 23 24 25 26 27 28 29 30 31 32 33 34 35 36 37 38 39 40 41 42 43 44 45 46 47 48 49 50
307
ASUS45 KCYS 231610
RWRWY

WYOMING REGIONAL WEATHER ROUNDUP
NATIONAL WEATHER SERVICE CHEYENNE WY
1000 AM MDT SAT SEP 23 2017

NOTE:  "FAIR" INDICATES FEW OR NO CLOUDS BELOW 12,000 FEET
WITH NO SIGNIFICANT WEATHER AND/OR OBSTRUCTIONS TO VISIBILITY.

WYZ001-231700-
YELLOWSTONE NATIONAL PARK

CITY           SKY/WX    TMP DP  RH WIND       PRES   REMARKS
LK YELLOWSTONE NOT AVBL
W YELLOWSTONE  NOT AVBL

$$
WYZ002>013-054>058-071-098>099-231700-
NORTHERN WYOMING

CITY           SKY/WX    TMP DP  RH WIND       PRES   REMARKS
JACKSON        FAIR      39  31  72 NE8       30.02F WCI  33
CODY           CLOUDY    36  36 100 NE7       30.09R FOG     WCI  30
GREYBULL       CLOUDY    43  41  93 NW3       30.07R
WORLAND        CLOUDY    42  41  96 N6        30.06R
SHERIDAN       CLOUDY    43  41  93 N8        30.07R
BUFFALO        CLOUDY    41  37  86 E7        30.06R
GILLETTE       LGT RAIN  41  39  93 NE3       30.06S
HULETT         RAIN      41  39  93 NE5       30.08F
NEWCASTLE      CLOUDY    41  39  93 CALM      30.08F

$$
WYZ014>020-022>026-101>103-231700-
CENTRAL WYOMING

CITY           SKY/WX    TMP DP  RH WIND       PRES   REMARKS
BIG PINEY      CLOUDY    37  33  85 N7        30.00F WCI  32
PINEDALE       CLOUDY    37  34  87 NW6       30.01S WCI  33
DUBOIS         CLOUDY    34  32  93 SE5       30.02S WCI  30
LANDER           N/A    N/A N/A N/A MISG      30.00F
RIVERTON       CLOUDY    40  39  97 NE8       30.02F WCI  34
CASPER         LGT RAIN  40  39  97 NE12      30.03F WCI  33
DOUGLAS        CLOUDY    44  40  85 NW5       30.03F

$$
WYZ021-027>030-104>119-231700-
SOUTHERN WYOMING

CITY           SKY/WX    TMP DP  RH WIND       PRES   REMARKS
EVANSTON       CLOUDY    35  33  92 N7        29.97S WCI  29
KEMMERER         N/A     36  34  93 N8        29.98F WCI  29
FORT BRIDGER   CLOUDY    39  39 100 E7        30.00S WCI  34
ROCK SPRINGS   CLOUDY    39  36  89 NE5       29.98S
DIXON          PTSUNNY   47  39  73 NE3       29.97F
RAWLINS        CLOUDY    44  41  89 NE9       29.97S
SARATOGA       LGT RAIN  43  43 100 SE8G17    30.01F
LARAMIE        CLOUDY    44  38  79 S6        30.00F
CHEYENNE       CLOUDY    44  37  76 NE7       30.01S
TORRINGTON     CLOUDY    45  42  89 NE8       30.01S
PINE BLUFFS    CLOUDY    41  39  93 MISG      30.01F FOG

$$




USA.gov is the U.S. government's official web portal to all federal, state and local government web resources and services.